Weather observations for the past three days for
Winchester Municipal Airport
Metric (Imperial)
Date Time (cdt) Wind (kph) Vis. (km) Weather Sky Cond. Temperature (ºC) Relative Humidity Wind Chill (°C) Heat Index (°C) Pressure Precipitation (cm)
Air Dwpt 6 hour altimeter (cm) sea level (mb) 1 hr 3 hr 6 hr
Max. Min.
07 14:35 NW 13 G 26 16.09 A Few Clouds FEW041 19 9 52% 76.07 0.0
07 14:15 N 17 16.09 Mostly Cloudy BKN041 18 9 56% 76.07 0.0
07 13:55 N 15 16.09 Mostly Cloudy BKN042 18 8 52% 76.1 0.0
07 13:35 NW 9 16.09 Mostly Cloudy BKN041 18 9 56% 76.1 0.0
07 13:15 N 17 16.09 Mostly Cloudy BKN040 18 8 52% 76.12 0.0
07 12:55 N 11 G 26 16.09 Mostly Cloudy BKN038 17 9 60% 76.12 0.0
07 12:35 N 19 16.09 A Few Clouds FEW037 17 9 60% 76.12 0.0
07 12:15 NW 17 16.09 A Few Clouds FEW035 17 10 64% 76.12 0.0
07 11:55 N 13 G 26 16.09 A Few Clouds FEW032 17 11 68% 76.12 0.0
07 11:35 Vrbl 11 G 20 16.09 Mostly Cloudy FEW030 BKN041 16 10 68% 76.12 0.0
07 11:15 N 19 16.09 Overcast OVC041 15 10 72% 76.15 0.0
07 10:55 N 20 16.09 Overcast OVC041 15 10 72% 76.15 0.0
07 10:35 N 19 16.09 Overcast OVC043 15 10 72% 76.15 0.0
07 10:15 N 20 16.09 Overcast FEW035 OVC046 15 11 77% 76.15 0.0
07 09:55 N 15 16.09 Overcast BKN035 OVC047 14 12 88% 76.15 0.0
07 09:35 N 15 16.09 Overcast OVC034 13 12 94% 76.12 0.0
07 09:15 N 19 16.09 Overcast FEW015 OVC035 13 12 94% 76.12 0.0
07 08:55 N 20 16.09 Overcast FEW016 OVC034 13 12 94% 76.1 0.0
07 08:35 N 13 G 26 16.09 Overcast FEW015 OVC033 13 13 100% 76.1 0.0
07 08:15 N 17 16.09 Overcast OVC032 13 13 100% 76.07 0.0
07 07:55 Vrbl 11 G 26 16.09 Overcast FEW011 OVC031 13 13 100% 76.07 0.0
07 07:35 N 13 16.09 Overcast SCT011 OVC029 12 12 100% 76.05 0.0
07 07:15 N 13 16.09 Overcast BKN010 BKN016 OVC030 12 12 100% 76.02 0.0
07 06:55 N 13 16.09 Overcast OVC010 12 12 100% 76.02 0.0
07 06:35 N 11 16.09 Overcast OVC012 12 12 100% 76 0.0
07 06:15 N 15 16.09 Overcast OVC009 12 12 100% 76 0.0
07 05:55 N 11 16.09 Overcast OVC008 12 12 100% 76 0.0
07 05:35 N 13 16.09 Overcast OVC009 12 12 100% 75.95 0.0
07 05:15 N 17 16.09 Overcast OVC009 12 12 100% 75.95 0.0
07 04:55 N 15 14.48 Overcast BKN009 OVC013 12 12 100% 75.95 0.0 0.08
07 04:35 N 15 8.05 Fog/Mist OVC008 12 12 100% 76 0.0
07 04:15 N 13 14.48 Overcast OVC008 12 12 100% 75.95 0.0
07 03:55 N 17 4.83 Fog/Mist OVC007 12 12 100% 75.95 0.0 0.18
07 03:35 NW 9 14.48 Overcast OVC008 12 12 100% 76 0.0
07 03:15 N 15 14.48 Overcast OVC008 13 13 100% 75.92 0.0
07 02:55 NW 7 4.83 Fog/Mist OVC009 13 13 100% 76 0.0 0.23
07 02:35 N 9 9.66 Fog/Mist OVC010 13 13 100% 76 0.0
07 02:15 N 13 4.83 Fog/Mist OVC009 13 13 100% 75.95 0.0
07 01:55 N 11 16.09 Overcast OVC008 13 13 100% 76 0.0
07 01:35 N 13 8.05 Fog/Mist OVC006 13 13 100% 75.97 0.0
07 01:15 N 15 6.44 Fog/Mist OVC005 13 13 100% 76.02 0.0
07 00:55 N 9 2.82 Fog/Mist OVC005 13 13 100% 76.02 0.0
07 00:35 N 17 4.83 Fog/Mist OVC005 13 13 100% 76.02 0.0
07 00:15 N 13 4.83 Fog/Mist OVC004 13 13 100% 76 0.0
06 23:55 N 20 9.66 Fog/Mist OVC004 14 14 100% 76 0.0
06 23:35 N 15 16.09 Overcast OVC004 14 14 100% 76.05 0.0
06 23:15 N 9 16.09 Overcast OVC004 14 14 100% 76.02 0.0
06 22:55 N 9 16.09 Overcast OVC004 14 14 100% 76.02 0.0
06 22:35 N 7 16.09 Overcast OVC004 14 14 100% 76.02 0.0
06 22:15 Calm 16.09 Overcast OVC003 14 14 100% 76.05 0.0
06 21:55 N 9 16.09 Overcast OVC004 14 14 100% 76.02 0.0
06 21:35 N 7 16.09 Overcast BKN006 OVC070 14 14 100% 76.02 0.0
06 21:15 Calm 16.09 Overcast FEW005 OVC070 14 14 100% 76 0.0
06 20:55 Calm 16.09 Overcast FEW009 OVC070 14 14 100% 75.97 0.0
06 20:35 N 9 16.09 Overcast BKN009 OVC016 14 14 100% 75.97 0.0
06 20:15 NW 6 16.09 Overcast BKN007 BKN010 OVC016 14 14 100% 76.02 0.0
06 19:55 Calm 16.09 Overcast OVC007 14 14 100% 76.02 0.0
06 19:35 Calm 16.09 Overcast OVC005 14 14 100% 76 0.0
06 19:15 N 7 16.09 Overcast OVC006 14 14 100% 76.05 0.0
06 18:55 NW 9 12.87 Overcast BKN005 OVC009 14 14 100% 76.07 0.0 0.23
06 18:35 NE 17 6.44 Fog/Mist BKN006 OVC011 15 15 100% 75.87 0.0
06 18:15 N 13 4.83 Fog/Mist OVC006 15 15 100% 76.02 0.0
06 17:55 Vrbl 7 4.83 Fog/Mist OVC004 15 15 100% 76.02 0.0 1.12
06 17:35 NW 19 G 28 1.21 Fog/Mist OVC004 16 16 100% 75.95 0.0
06 17:15 Calm 4.02 Fog/Mist FEW005 BKN010 OVC050 18 18 100% 75.95 0.0
06 16:55 Calm 4.83 Fog/Mist FEW003 SCT019 BKN042 18 18 100% 75.92 0.0 0.36
06 16:35 N 6 6.44 Fog/Mist FEW003 SCT020 BKN039 18 18 100% 75.9 0.0
06 16:15 SE 6 2.82 Fog/Mist SCT003 BKN025 OVC040 18 18 100% 75.92 0.0
06 15:55 Calm 14.48 Overcast FEW034 OVC060 18 18 100% 75.9 0.0 0.13
06 15:35 Calm 3.22 Fog/Mist NULL 18 18 100% 75.9 0.0
06 15:15 SW 9 11.27 Mostly Cloudy FEW030 FEW050 BKN070 18 18 100% 75.95 0.0
06 14:55 SW 11 2.82 Fog/Mist SCT003 BKN037 OVC080 18 18 100% 75.95 0.0 0.3
06 14:35 SW 15 4.83 Fog/Mist FEW003 SCT032 BKN055 19 19 100% 75.97 0.0
06 14:15 Vrbl 9 9.66 Fog/Mist FEW027 SCT044 BKN060 19 19 100% 75.97 0.0
06 13:55 SW 11 6.44 Fog/Mist FEW027 SCT036 BKN085 19 19 100% 75.95 0.0 0.23
06 13:35 SW 15 6.44 Fog/Mist FEW033 BKN038 BKN045 19 19 100% 76.02 0.0
06 13:15 SW 7 6.44 Fog/Mist FEW034 BKN039 BKN047 20 20 100% 75.97 0.0
06 12:55 E 7 4.83 Fog/Mist FEW015 SCT027 BKN037 20 20 100% 75.95 0.0 0.38
06 12:30 Calm 2.82 Fog/Mist OVC015 20 20 100% 76 0.0
06 12:15 W 9 G 19 8.05 Fog/Mist OVC018 20 20 100% 76.05 0.0
06 11:55 SW 17 12.87 Overcast BKN021 BKN027 OVC110 21 20 94% 76 0.0
06 11:35 SW 17 G 26 16.09 Mostly Cloudy SCT021 SCT060 BKN070 22 20 88% 75.95 0.0
06 11:15 S 13 G 24 16.09 Mostly Cloudy SCT020 BKN070 23 21 89% 75.95 0.0
06 10:55 SW 13 G 24 16.09 A Few Clouds FEW016 FEW080 22 22 100% 75.92 0.0
06 10:35 S 22 16.09 A Few Clouds FEW050 FEW095 21 21 100% 75.95 0.0
06 10:15 S 11 G 20 16.09 Partly Cloudy FEW029 FEW050 SCT090 20 20 100% 75.92 0.0
06 09:55 S 15 8.05 Fog/Mist FEW029 SCT055 BKN095 19 19 100% 75.92 0.0 0.1
06 09:35 S 17 16.09 Partly Cloudy FEW030 SCT095 19 19 100% 75.92 0.0
06 09:15 Vrbl 7 11.27 Mostly Cloudy FEW027 SCT034 BKN043 18 18 100% 75.92 0.0
06 08:55 S 7 4.83 Fog/Mist BKN040 BKN048 OVC060 17 17 100% 76 0.0 1.57
06 08:35 S 7 3.22 Fog/Mist SCT004 BKN032 OVC050 17 17 100% 76.05 0.0
06 08:15 SW 11 0.40 Fog OVC003 17 17 100% 76.05 0.0
06 07:55 Calm 4.02 Fog/Mist FEW004 BKN033 OVC060 17 17 100% 76 0.0 1.17
06 07:35 Vrbl 11 2.82 Fog/Mist BKN003 BKN011 OVC033 18 18 100% 75.95 0.0
06 07:15 N 17 4.83 Fog/Mist FEW014 OVC021 19 19 100% 75.97 0.0
06 06:55 SW 7 14.48 Overcast OVC022 19 19 100% 75.87 0.0 0.1
06 06:35 Calm 9.66 Fog/Mist BKN022 OVC047 19 19 100% 75.84 0.0
06 06:15 S 9 9.66 Fog/Mist OVC023 19 19 100% 75.82 0.0
06 05:55 S 13 11.27 Overcast OVC024 20 19 94% 75.82 0.0 0.08
06 05:35 S 13 12.87 Overcast OVC025 20 18 88% 75.82 0.0
06 05:15 S 11 G 20 12.87 Overcast OVC025 21 17 78% 75.79 0.0
06 04:55 SW 15 G 28 16.09 Overcast OVC025 21 17 78% 75.77 0.0 0.03
06 04:35 S 11 11.27 Overcast OVC027 21 17 78% 75.77 0.0
06 04:15 S 15 G 28 16.09 Overcast OVC027 21 16 73% 75.77 0.0
06 03:50 SW 15 16.09 Overcast OVC030 21 15 69% 75.77 0.0
06 03:35 S 17 G 28 16.09 Overcast OVC030 21 15 69% 75.74 0.0
06 03:15 S 20 G 31 16.09 Overcast OVC031 22 15 65% 75.74 0.0
06 02:55 SW 20 16.09 Overcast OVC033 22 15 65% 75.72 0.0
06 02:35 SW 15 16.09 Overcast OVC036 22 15 65% 75.72 0.0
06 02:15 SW 17 G 26 16.09 Overcast BKN038 OVC048 22 15 65% 75.72 0.0
06 01:45 SW 22 G 31 16.09 Overcast BKN041 OVC048 22 14 61% 75.72 0.0
06 01:35 S 13 G 28 16.09 Overcast OVC040 22 14 61% 75.74 0.0
06 01:15 SW 17 G 28 16.09 Overcast BKN042 OVC085 22 14 61% 75.74 0.0
06 00:55 SW 15 16.09 Overcast BKN043 BKN049 OVC090 22 14 61% 75.77 0.0
06 00:35 S 7 16.09 Overcast OVC042 22 13 57% 75.79 0.0
06 00:15 SW 13 16.09 Overcast OVC042 22 13 57% 75.82 0.0
05 23:55 S 13 G 24 16.09 Overcast OVC043 22 13 57% 75.82 0.0
05 23:35 S 11 16.09 Overcast OVC044 22 12 53% 75.82 0.0
05 23:15 S 13 G 22 16.09 Overcast OVC044 22 12 53% 75.84 0.0
05 22:55 S 20 16.09 Overcast BKN044 OVC050 22 12 53% 75.82 0.0
05 22:35 S 13 G 28 16.09 Overcast BKN048 BKN060 OVC080 22 12 53% 75.84 0.0
05 22:15 S 15 16.09 Overcast BKN047 BKN055 OVC075 21 13 60% 75.82 0.0
05 21:55 S 13 G 30 16.09 Overcast OVC045 22 13 57% 75.84 0.0
05 21:35 S 17 16.09 Overcast OVC045 21 13 60% 75.84 0.0
05 21:15 S 17 G 26 16.09 Overcast OVC045 21 13 60% 75.82 0.0
05 20:55 S 19 16.09 Overcast OVC045 21 12 57% 75.82 0.0
05 20:35 S 17 16.09 Overcast OVC047 21 12 57% 75.82 0.0
05 20:15 S 15 G 24 16.09 Overcast OVC048 21 12 57% 75.79 0.0
05 19:50 Vrbl 11 16.09 Mostly Cloudy BKN048 BKN075 21 12 57% 75.79 0.0
05 19:35 S 22 16.09 Mostly Cloudy BKN050 BKN075 21 11 53% 75.79 0.0
05 19:15 S 19 G 30 16.09 Mostly Cloudy SCT050 BKN075 21 11 53% 75.79 0.0
05 18:55 S 17 16.09 A Few Clouds FEW075 22 11 50% 75.79 0.0
05 18:35 S 26 G 37 16.09 Fair CLR 22 11 50% 75.79 0.0
05 18:15 S 19 G 28 16.09 A Few Clouds FEW055 FEW075 22 11 50% 75.82 0.0
05 17:55 S 19 G 33 16.09 Mostly Cloudy BKN075 22 11 50% 75.84 0.0
05 17:35 S 22 G 35 16.09 Overcast BKN075 OVC110 22 11 50% 75.87 0.0
05 17:15 S 15 16.09 Mostly Cloudy BKN110 22 12 53% 75.84 0.0
05 16:55 S 15 16.09 Partly Cloudy FEW023 SCT110 21 12 57% 75.84 0.0
05 16:35 S 17 G 26 16.09 Partly Cloudy FEW065 FEW085 SCT110 21 12 57% 75.84 0.0
05 16:15 S 22 16.09 Partly Cloudy FEW090 SCT110 21 11 53% 75.84 0.0
05 15:55 S 19 G 30 16.09 Partly Cloudy SCT110 21 11 53% 75.84 0.0
05 15:35 S 19 14.48 Fair CLR 21 12 57% 75.82 0.0
05 15:15 S 20 16.09 A Few Clouds FEW065 22 10 47% 75.87 0.0
05 14:55 S 15 G 26 16.09 Fair CLR 22 8 41% 75.9 0.0
05 14:35 S 17 G 33 16.09 Fair CLR 23 8 38% 75.95 0.0
05 14:15 S 26 16.09 A Few Clouds FEW110 24 8 36% 25 75.97 0.0
05 13:55 S 24 G 35 16.09 Fair CLR 24 8 36% 25 76 0.0
05 13:35 SW 31 G 43 16.09 Fair CLR 24 8 36% 25 76 0.0
05 13:15 S 26 G 37 16.09 Fair CLR 24 7 34% 25 76 0.0
05 12:55 S 15 G 31 16.09 Fair CLR 24 9 39% 25 76 0.0
05 12:35 SW 26 G 37 16.09 Fair CLR 24 8 36% 25 76.02 0.0
05 12:15 SW 28 16.09 Fair CLR 24 8 36% 25 76.05 0.0
05 11:55 SW 26 G 41 16.09 Fair CLR 24 9 39% 25 76.07 0.0
05 11:35 SW 28 16.09 Fair CLR 23 9 41% 76.1 0.0
05 11:15 SW 19 G 28 16.09 Fair CLR 23 10 44% 76.1 0.0
05 10:55 S 13 G 28 16.09 Fair CLR 22 11 50% 76.1 0.0
05 10:35 SW 19 G 33 16.09 Fair CLR 22 12 53% 76.1 0.0
05 10:15 SW 19 16.09 Fair CLR 21 11 53% 76.1 0.0
05 09:55 SW 13 G 24 16.09 Fair CLR 21 11 53% 76.1 0.0
05 09:35 S 15 16.09 Fair CLR 20 11 56% 76.07 0.0
05 09:15 S 11 16.09 Fair CLR 20 11 56% 76.1 0.0
05 08:55 S 15 16.09 Fair CLR 20 11 56% 76.07 0.0
05 08:35 S 9 16.09 Fair CLR 19 11 60% 76.1 0.0
05 08:15 S 11 16.09 Fair CLR 18 11 64% 76.07 0.0
05 07:55 SE 6 16.09 Fair CLR 17 11 68% 76.07 0.0
05 07:35 SE 6 16.09 Fair CLR 17 11 68% 76.1 0.0
05 07:15 S 7 16.09 Fair CLR 16 10 68% 76.07 0.0
05 06:55 S 11 16.09 Fair CLR 15 10 72% 76.02 0.0
05 06:35 S 11 16.09 Fair CLR 15 9 68% 76.02 0.0
05 06:15 S 11 16.09 Fair CLR 15 9 68% 76 0.0
05 05:55 S 11 16.09 Fair CLR 15 8 63% 76 0.0
05 05:35 Calm 16.09 Fair CLR 14 8 67% 75.97 0.0
05 05:15 Calm 16.09 Partly Cloudy SCT055 14 8 67% 75.95 0.0
05 04:55 S 7 16.09 A Few Clouds FEW050 15 8 63% 75.95 0.0
05 04:35 S 6 16.09 Fair CLR 15 8 63% 75.92 0.0
05 04:15 Calm 16.09 Fair CLR 17 7 52% 75.95 0.0
05 03:55 Calm 16.09 Fair CLR 16 8 59% 75.95 0.0
05 03:35 S 9 16.09 A Few Clouds FEW055 16 8 59% 75.92 0.0
05 03:15 S 13 16.09 Fair CLR 16 8 59% 75.92 0.0
05 02:55 S 11 16.09 Fair CLR 16 8 59% 75.95 0.0
05 02:35 S 15 16.09 Fair CLR 16 9 63% 75.95 0.0
05 02:15 S 9 16.09 Fair CLR 15 9 68% 75.97 0.0
05 01:55 S 6 16.09 Fair CLR 15 9 68% 75.97 0.0
05 01:35 S 7 16.09 Fair CLR 16 9 63% 76 0.0
05 01:15 Calm 16.09 Fair CLR 15 9 68% 76 0.0
05 00:55 S 9 16.09 Fair CLR 15 9 68% 76 0.0
05 00:35 Calm 16.09 Fair CLR 15 9 68% 76 0.0
05 00:15 S 6 16.09 Fair CLR 15 9 68% 76.02 0.0
04 23:55 S 9 16.09 Fair CLR 15 9 68% 76 0.0
04 23:35 S 6 16.09 Fair CLR 15 10 72% 76 0.0
04 23:15 S 7 16.09 Fair CLR 15 10 72% 76 0.0
04 22:55 S 7 16.09 A Few Clouds FEW065 16 9 63% 76 0.0
04 22:35 S 7 16.09 A Few Clouds FEW065 16 9 63% 76.02 0.0
04 22:15 S 7 16.09 Partly Cloudy SCT065 16 9 63% 76 0.0
04 21:55 S 9 16.09 Fair CLR 16 9 63% 76 0.0
04 21:35 S 9 16.09 Fair CLR 17 9 60% 76 0.0
04 21:15 SE 7 16.09 A Few Clouds FEW060 18 9 56% 76 0.0
04 20:55 S 13 16.09 A Few Clouds FEW065 18 9 56% 76 0.0
04 20:35 S 11 16.09 Fair CLR 19 9 52% 75.97 0.0
04 20:15 S 9 16.09 Fair CLR 20 9 49% 75.97 0.0
04 19:55 S 7 16.09 Fair CLR 21 9 46% 75.97 0.0
04 19:35 S 9 16.09 Fair CLR 21 9 46% 75.97 0.0
04 19:15 S 11 16.09 Fair CLR 22 9 44% 75.95 0.0
04 18:55 S 11 16.09 Fair CLR 23 8 38% 75.95 0.0
04 18:35 S 17 G 30 16.09 Fair CLR 24 8 36% 25 75.92 0.0
04 18:15 SW 17 G 28 16.09 Fair CLR 24 9 39% 25 75.92 0.0
04 17:55 S 20 16.09 Fair CLR 24 9 39% 25 75.95 0.0
04 17:35 SW 22 16.09 Fair CLR 24 9 39% 25 75.95 0.0
04 17:15 S 19 G 30 16.09 Fair CLR 24 10 41% 25 75.95 0.0
04 16:55 SW 24 16.09 Fair CLR 25 10 39% 26 75.95 0.0
04 16:35 S 15 G 24 16.09 Fair CLR 25 10 39% 26 75.95 0.0
04 16:15 SW 24 G 35 16.09 Fair CLR 25 9 36% 26 75.95 0.0
04 15:55 SW 24 16.09 Fair CLR 25 10 39% 26 75.95 0.0
04 15:35 S 20 16.09 A Few Clouds FEW060 25 10 39% 26 75.95 0.0
04 15:15 SW 9 G 28 16.09 Partly Cloudy SCT060 25 10 39% 26 75.97 0.0
Date Time (cdt) Wind (kph) Vis. (km) Weather Sky Cond. Air Dwpt Max. Min. Relative Humidity Wind Chill (°C) Heat Index (°C) altimeter (cm) sea level (mb) 1 hr 3 hr 6 hr
6 hour
Temperature (ºC) Pressure Precipitation (cm)